Theta_e
300 300 300 300 300 301 300 300 301 300 300 300 300 301 300 301 300 300 299 300 300 299 300 299 299 299 299 298 298 298 298 298 298 298 297 297 296 296 296 296 296 295
299 299 299 300 301 300 300 300 300 300 300 300 300 300 300 299 299 299 299 299 299 299 299 298 298 298 298 298 298 297 297 297 297 297 296 295 296 296 295 295 295 295
298 298 299 299 300 299 298 299 299 299 299 299 299 299 299 299 299 299 298 298 299 299 298 298 297 297 297 297 297 296 296 296 296 296 295 295 295 295 295 295 295 294
296 296 296 297 297 297 298 298 298 298 298 298 299 298 297 298 298 297 298 296 298 297 297 296 296 296 296 296 295 296 296 295 295 295 294 295 295 294 294 294 294 293
295 295 295 295 296 296 297 297 297 297 297 296 297 297 297 297 297 297 297 296 296 296 296 295 295 295 295 295 295 295 295 295 294 294 294 294 294 293 293 293 293 292
294 294 294 294 294 295 296 295 295 295 295 295 295 295 296 295 296 296 296 296 295 295 295 295 295 294 294 294 294 295 294 294 293 293 293 294 294 293 292 292 292 291
293 293 293 293 293 293 294 293 293 293 294 294 294 294 295 295 295 294 295 295 295 294 294 294 294 293 294 294 294 293 293 293 292 292 292 293 292 292 291 291 291 290
292 292 292 292 293 293 293 292 293 293 293 293 294 293 293 294 294 294 294 294 293 293 293 293 293 293 293 293 293 292 291 291 292 291 291 291 291 290 290 290 290 289
292 292 292 292 292 292 292 292 292 292 292 293 293 292 292 293 293 293 292 293 292 292 292 292 292 291 292 292 292 291 291 290 291 290 290 290 290 289 289 289 289 288
291 291 291 292 292 291 291 291 291 291 291 292 292 292 291 291 291 291 291 291 291 291 291 291 291 291 290 290 290 290 290 290 289 289 289 289 289 288 288 288 288 288
290 291 291 291 291 291 290 290 291 291 291 291 291 290 290 290 290 291 290 290 290 290 289 289 289 289 289 289 289 289 289 289 288 288 288 288 287 287 286 287 287 286
290 290 290 290 290 290 290 290 290 290 290 289 290 289 289 289 289 289 289 288 288 288 288 288 288 288 288 288 288 288 288 287 287 287 286 286 285 285 285 285 285 285
289 289 289 289 289 289 289 289 289 289 289 288 288 288 288 287 287 287 287 287 286 286 286 286 287 287 287 287 287 287 286 286 286 285 284 283 283 283 283 283 283 283
289 288 288 289 289 288 288 288 288 287 287 287 287 287 286 286 285 285 285 285 285 285 286 287 286 286 286 286 286 286 285 285 284 284 283 282 282 282 282 282 282 282
288 288 288 288 288 288 287 287 286 286 285 285 285 284 284 284 284 284 283 284 285 286 286 287 286 285 285 285 284 284 284 283 283 283 282 281 281 281 281 281 281 281
287 287 287 287 287 287 286 285 285 284 284 283 283 283 282 283 283 284 285 285 286 286 287 286 285 284 284 283 284 283 283 282 282 282 281 281 280 280 279 279 279 279
287 287 287 286 286 286 285 284 284 283 282 282 281 281 282 283 284 285 286 287 286 285 284 284 284 284 283 284 283 282 282 281 281 280 280 280 279 279 278 279 279 280
286 286 286 285 285 285 284 283 283 282 281 281 281 281 283 284 285 285 285 285 285 284 283 283 283 284 284 283 283 282 282 281 280 280 279 279 279 279 279 279 279 279
286 286 285 285 284 283 283 282 282 281 280 280 280 282 284 284 284 285 284 284 284 283 282 283 283 283 283 283 282 282 281 280 280 280 280 279 279 279 279 279 279 279
285 285 284 283 283 282 282 281 280 280 280 280 281 283 284 284 284 284 284 283 283 282 282 282 282 282 282 282 282 281 281 280 280 280 279 279 279 279 278 278 278 277
284 284 283 282 282 281 280 280 279 279 279 281 282 283 283 283 283 283 283 283 283 283 282 281 282 282 282 282 281 281 280 280 280 280 279 279 278 278 277 277 277 277
283 283 282 281 281 280 279 279 278 279 279 281 282 282 282 282 282 283 282 283 283 283 282 281 281 281 281 281 280 280 280 280 280 279 278 278 277 277 277 277 277 276
282 282 281 280 280 279 278 278 278 279 280 281 281 280 280 280 280 280 281 281 282 282 282 281 281 281 280 280 279 279 279 279 279 279 278 277 277 277 277 276 275 275
281 281 280 279 279 279 278 278 279 280 280 280 279 279 278 278 278 278 278 278 279 279 281 280 281 281 281 280 279 279 279 279 279 279 278 277 277 277 276 276 275 274
280 280 279 279 278 278 278 278 278 278 278 279 278 278 277 277 277 277 276 277 277 276 276 278 279 280 280 280 280 278 278 278 278 278 276 275 275 275 275 275 275 275
279 279 279 278 278 277 277 277 277 277 277 277 277 277 277 276 276 276 275 275 275 275 275 276 277 278 279 279 279 279 278 277 278 276 275 274 274 274 273 274 274 274
Wind_Speed
1 1 2 2 2 2 2 2 2 2 2 2 2 2 2 1 1 2 2 2 2 3 2 2 2 2 2 2 3 3 3 4 4 3 3 4 5 5 5 6 6 5
1 0 1 1 1 1 1 1 2 2 2 2 1 1 1 1 1 1 1 1 2 2 1 1 1 1 1 2 2 3 2 3 3 1 3 4 4 4 6 6 6 5
2 1 0 1 0 0 1 1 1 1 1 1 1 1 1 0 1 0 1 1 1 0 0 0 1 1 1 1 2 2 2 2 2 2 3 4 3 4 3 3 4 5
2 2 1 1 1 0 0 1 1 1 1 1 0 1 1 0 1 0 0 0 0 1 1 1 1 1 2 2 2 2 1 1 1 1 2 2 2 2 2 2 2 2
2 2 1 1 1 0 0 1 1 1 1 1 1 1 1 0 1 1 1 1 1 2 2 2 2 2 2 2 1 1 1 1 1 1 1 1 0 0 1 1 2 2
2 2 2 2 2 1 1 2 2 1 1 1 2 1 1 1 2 2 2 2 2 2 3 2 3 2 2 2 1 2 1 1 2 1 1 1 0 1 0 1 1 2
2 2 2 2 2 2 2 2 2 1 1 2 1 2 2 2 3 3 3 3 3 3 3 3 3 3 3 2 3 3 3 3 2 2 2 1 1 1 1 1 1 1
3 2 2 2 2 2 3 2 2 2 1 1 3 3 2 3 3 3 3 4 4 4 4 4 4 4 3 3 3 4 4 2 2 2 2 2 2 2 2 1 1 1
2 2 2 3 3 3 3 2 2 2 1 2 3 3 3 3 3 4 4 4 5 5 5 4 4 4 4 4 4 4 4 4 3 3 3 3 3 3 3 2 2 2
3 3 3 3 3 3 3 3 2 2 2 3 3 3 4 4 4 4 4 5 5 5 5 5 5 4 4 4 4 4 4 5 4 4 4 4 4 4 3 3 3 3
3 3 3 3 3 3 3 3 3 3 3 3 4 4 4 5 4 4 5 5 5 5 5 5 5 5 5 5 5 4 5 5 5 5 5 5 5 5 4 4 4 5
3 3 3 3 3 4 4 3 3 4 4 4 4 5 5 5 5 4 5 5 5 5 5 5 5 5 5 5 5 5 5 5 5 6 6 6 6 5 5 5 5 5
3 3 3 3 3 3 3 4 4 4 4 5 4 5 5 5 5 6 5 5 6 6 6 6 6 5 5 5 6 6 6 6 7 7 7 6 6 6 6 6 6 6
3 3 3 3 3 4 4 4 5 5 5 4 5 5 6 6 6 6 5 6 6 6 6 6 6 6 6 5 5 6 6 7 7 7 7 7 7 7 7 7 7 7
4 3 3 4 4 5 5 5 5 5 5 5 5 5 4 5 6 6 7 7 7 7 7 6 6 5 4 4 6 7 7 7 7 8 8 8 8 8 7 7 7 7
4 4 4 5 5 5 5 5 5 5 5 6 6 6 6 6 6 7 7 8 8 8 7 7 6 5 7 10 7 6 7 7 7 7 7 7 7 7 7 7 6 6
4 4 5 5 5 5 5 6 6 5 6 7 7 7 7 7 7 8 7 7 8 8 8 7 7 6 10 12 11 10 8 7 7 7 7 6 6 6 6 5 5 5
4 5 5 5 5 5 5 6 6 6 7 7 7 8 7 7 8 8 8 7 7 9 9 8 8 10 13 12 12 11 8 7 6 6 5 5 5 5 5 4 4 4
5 5 6 5 5 6 6 6 7 7 7 7 7 7 7 8 8 8 8 8 8 9 9 9 8 11 12 13 12 11 9 7 6 6 6 6 6 5 5 4 4 3
5 6 6 6 6 6 7 7 7 7 7 7 7 7 8 8 8 8 8 8 8 9 9 9 9 10 12 12 11 10 9 7 6 6 6 6 6 5 4 5 5 4
6 6 7 7 7 7 7 7 8 7 7 6 6 7 8 8 7 7 7 7 8 8 8 8 7 11 11 11 9 8 7 5 5 4 5 5 5 5 5 4 4 4
6 7 7 7 7 7 8 8 7 7 7 6 7 7 6 7 7 6 7 7 7 8 8 9 8 11 10 10 8 6 4 3 4 4 4 4 4 4 4 4 4 5
6 7 8 7 7 8 8 8 8 8 7 6 7 7 7 6 6 6 6 7 7 7 8 8 8 9 10 10 8 5 2 3 3 3 3 3 3 3 3 3 5 6
6 7 7 7 7 8 8 7 7 6 6 5 8 8 7 6 6 6 6 6 7 7 7 8 8 8 8 8 8 7 4 3 2 2 3 3 2 3 3 2 4 5
5 6 7 7 8 7 7 8 7 7 6 6 7 7 7 6 6 6 6 6 7 7 7 7 7 8 9 8 8 7 5 3 2 2 3 4 4 3 3 2 3 3
4 6 6 7 8 7 7 7 6 7 7 7 7 6 7 6 6 6 7 6 5 6 5 5 6 6 8 9 9 9 8 4 3 3 4 4 4 4 4 4 4 4
Wind_Direction
197 214 215 222 224 227 237 242 240 243 250 250 253 261 260 295 335 285 276 261 257 259 253 247 243 240 231 230 224 235 238 238 239 243 227 227 241 234 236 237 238 244
81 155 234 237 224 195 222 229 243 249 250 249 260 278 267 281 285 272 274 270 246 248 265 253 245 238 226 227 195 223 227 222 229 192 227 227 237 230 234 237 238 238
60 87 136 271 267 125 233 214 245 239 245 274 281 251 263 344 276 302 265 281 260 204 172 194 187 185 192 207 192 217 222 208 221 187 220 222 229 235 240 232 234 230
65 46 35 24 350 326 275 210 184 193 201 205 155 39 2 355 312 106 126 173 151 99 105 114 123 142 159 171 190 208 182 208 188 193 220 227 223 239 250 248 246 242
51 63 59 56 59 46 105 152 107 74 87 60 100 89 156 117 135 113 112 105 104 111 108 115 118 116 141 147 173 153 144 153 142 198 221 236 167 255 284 253 245 248
70 57 54 50 39 37 64 59 56 59 80 123 75 106 87 80 96 96 94 100 100 99 104 98 98 94 95 93 124 94 93 95 95 122 101 153 110 81 34 285 266 265
71 64 67 70 74 58 72 67 66 62 66 67 102 77 80 95 93 93 92 94 94 87 81 83 83 83 79 92 86 85 83 80 93 101 110 90 83 88 90 2 319 316
89 89 81 90 100 91 85 81 72 73 71 100 94 78 74 89 90 88 90 90 88 82 82 79 80 79 79 88 93 103 98 89 87 99 95 88 88 80 77 67 15 9
103 98 105 109 105 103 90 85 83 81 76 99 99 98 83 81 85 88 89 89 87 87 85 82 84 86 83 87 91 92 95 92 86 82 78 81 78 75 68 64 67 58
111 115 115 117 112 102 101 100 103 102 99 102 99 99 95 83 81 90 93 94 95 91 92 94 90 90 87 82 82 85 90 91 87 80 80 74 73 70 63 62 55 58
123 126 122 116 112 112 110 112 112 110 100 98 104 100 99 102 98 94 95 96 94 96 94 88 87 90 91 88 86 84 86 89 87 83 78 74 69 66 59 58 58 56
129 125 121 118 119 116 112 108 106 106 107 101 106 109 103 102 102 94 95 95 93 90 88 88 88 87 87 89 89 91 93 89 86 84 78 73 67 63 60 57 58 61
131 127 126 127 122 117 118 116 113 112 111 109 111 113 112 108 101 97 88 89 86 87 86 88 87 86 88 90 93 93 92 91 89 84 80 73 67 66 65 64 64 62
134 131 129 125 123 127 124 121 117 113 111 112 112 107 103 102 100 96 90 86 86 86 86 87 88 88 88 89 90 91 88 86 86 87 85 82 76 72 69 69 67 64
138 132 131 132 135 133 127 121 115 113 112 109 102 96 88 92 95 97 96 93 88 89 87 80 74 68 70 91 96 86 87 85 83 86 89 89 85 79 72 69 66 61
137 136 139 140 139 132 126 123 119 115 110 101 94 92 91 89 91 92 95 97 97 92 85 79 75 70 63 61 67 91 92 90 88 84 85 88 90 86 78 72 71 76
142 139 142 140 133 128 124 121 116 111 103 97 95 94 94 95 96 95 94 94 93 91 85 81 79 78 78 79 78 77 87 89 89 86 82 81 80 82 80 78 74 70
141 141 138 132 130 124 121 117 114 109 104 103 103 99 96 98 95 95 95 93 92 90 87 85 85 83 83 81 79 74 77 88 91 90 86 80 76 73 71 66 60 59
147 146 137 132 127 123 122 121 115 109 108 107 103 105 106 100 100 99 96 96 95 95 92 89 86 82 84 83 80 80 79 83 86 84 82 77 71 66 61 50 38 30
152 145 136 130 130 130 127 122 114 110 111 111 113 110 105 104 103 101 100 98 97 97 94 91 87 84 85 84 83 80 78 79 82 82 81 76 68 59 54 46 35 23
150 142 135 135 136 132 126 118 117 118 117 116 115 112 112 111 110 104 98 99 100 99 96 89 82 82 82 82 83 83 81 83 86 86 84 77 68 61 55 49 31 20
152 143 141 141 138 132 125 121 120 121 116 112 108 103 101 104 101 100 100 98 99 102 99 92 82 74 72 72 72 72 75 83 84 79 76 76 73 64 58 47 39 15
155 147 144 143 139 131 125 124 124 122 119 123 116 114 113 105 103 96 92 94 94 94 96 94 88 76 71 64 56 42 55 76 81 77 74 71 67 67 66 66 48 21
152 147 143 143 138 133 128 125 124 120 121 125 122 121 112 106 104 95 82 75 77 79 81 94 84 77 74 69 57 44 33 55 55 62 57 44 52 54 46 48 75 61
148 144 143 140 133 128 128 129 128 126 119 115 112 110 109 108 103 100 92 77 69 70 41 74 86 70 60 63 58 44 29 37 38 48 40 22 13 14 17 37 19 50
141 140 136 134 129 125 125 119 117 119 122 116 113 113 113 110 101 98 95 86 78 72 66 63 72 71 53 51 51 49 41 34 34 34 26 11 4 359 349 357 10 1